Location: Diebersbach
(48.5163°N, 8.0558°E)
Time: 09:50:00
(UTC+00:00)

ADEOS II - Pass Details

Date: 20 June 2021
Orbit: 799 x 800 km, 98.6° (Epoch: 01 August)

Event Time Altitude Azimuth Distance (km) Brightness Sun altitude
Rises 01:24:33 0° 17° (NNE) 3,323 7.1 -13.6°
Reaches altitude 10° 01:26:57 10° 22° (NNE) 2,387 6.0 -13.4°
Maximum altitude 01:32:08 56° 101° (E) 951 2.6 -13.0°
Enters shadow 01:36:50 12° 178° (S) 2,201 3.9 -12.6°
